Weather History for KIWD - April, 2013

Change the Weather History Date:

Tuesday, April 9, 2013

  Actual Average Record
Temperature  
Mean Temperature 34 °F -  
Max Temperature 35 °F 44 °F 69 °F (2005)
Min Temperature 32 °F 27 °F -2 °F (2007)
Degree Days  
Heating Degree Days 32    
Moisture  
Dew Point 26 °F    
Average Humidity 75    
Maximum Humidity 93    
Minimum Humidity 48    
Precipitation  
Precipitation 0.01 in - - ()
Sea Level Pressure  
Sea Level Pressure 30.08 in    
Wind  
Wind Speed 5 mph (NNE)    
Max Wind Speed 16 mph    
Max Gust Speed 22 mph    
Visibility 6 miles    
Events      
Averages and records for this station are not official NWS values.
T = Trace of Precipitation, MM = Missing Value Source: NWS Daily Summary

Daily Weather History Graph

Daily Weather History Graph

Search for Another Location

Airport or City:

Trip Planner

Search our weather history database for the weather conditions in past years. The results will help you decide how hot, cold, wet, or windy it might be!

Date:

Astronomy

Apr. 09, 2013 Rise Set
Actual Time 6:24 AM CDT 7:40 PM CDT
Civil Twilight 5:53 AM CDT 8:11 PM CDT
Nautical Twilight 5:15 AM CDT 8:49 PM CDT
Astronomical Twilight 4:35 AM CDT 9:29 PM CDT
Moon 5:48 AM CDT (4/9) 7:16 PM CDT (4/9)
Length of Visible Light 14h 18m
Length of Day
13h 16m
Waning Crescent, 1% of the Moon is Illuminated
Apr 9
Waning Crescent
Apr 10
New
Apr 18
First Quarter
Apr 25
Full
May 2
Last Quarter

Hourly Weather History & Observations

Time (CDT) Temp. Windchill Dew Point Humidity Pressure Visibility Wind Dir Wind Speed Gust Speed Precip Events Conditions
12:15 AM 33.8 °F 30.8 °F 30.2 °F 87% 30.00 in 0.5 mi West 3.5 mph - N/A   Overcast
12:35 AM 33.8 °F - 30.2 °F 87% 30.00 in 0.2 mi Calm Calm - N/A   Overcast
12:55 AM 33.8 °F 29.6 °F 30.2 °F 87% 30.02 in 0.2 mi WSW 4.6 mph - N/A   Overcast
1:15 AM 33.8 °F 27.0 °F 28.4 °F 81% 30.03 in 0.2 mi West 8.1 mph - N/A   Overcast
1:35 AM 33.8 °F 29.6 °F 28.4 °F 81% 30.03 in 0.2 mi West 4.6 mph - N/A   Overcast
1:55 AM 33.8 °F 30.8 °F 28.4 °F 81% 30.04 in 0.2 mi West 3.5 mph - N/A   Overcast
2:15 AM 33.8 °F 29.6 °F 28.4 °F 81% 30.03 in 0.2 mi West 4.6 mph - N/A   Overcast
2:35 AM 33.8 °F 29.6 °F 28.4 °F 81% 30.03 in 0.5 mi WNW 4.6 mph - N/A   Overcast
2:55 AM 33.8 °F 28.6 °F 30.2 °F 87% 30.03 in 0.5 mi West 5.8 mph - N/A   Overcast
3:15 AM 33.8 °F 30.8 °F 28.4 °F 81% 30.02 in 0.2 mi WNW 3.5 mph - N/A   Overcast
3:35 AM 33.8 °F - 30.2 °F 87% 30.01 in 0.2 mi Calm Calm - N/A   Overcast
3:55 AM 33.8 °F - 28.4 °F 81% 30.01 in 0.2 mi Calm Calm - N/A   Overcast
4:15 AM 32.0 °F - 30.2 °F 93% 30.01 in 0.2 mi Calm Calm - N/A   Overcast
4:35 AM 32.0 °F - 28.4 °F 87% 30.02 in 0.2 mi Calm Calm - 0.01 in   Overcast
4:55 AM 32.0 °F - 28.4 °F 87% 30.03 in 0.2 mi Calm Calm - 0.01 in   Overcast
5:15 AM 32.0 °F - 28.4 °F 87% 30.02 in 0.2 mi Calm Calm - N/A   Overcast
5:35 AM 33.8 °F - 28.4 °F 81% 30.04 in 0.2 mi Calm Calm - N/A   Overcast
5:55 AM 33.8 °F 28.6 °F 28.4 °F 81% 30.08 in 0.5 mi SSW 5.8 mph - N/A   Overcast
6:15 AM 33.8 °F 30.8 °F 30.2 °F 87% 30.07 in 0.2 mi WSW 3.5 mph - N/A   Overcast
6:35 AM 33.8 °F 30.8 °F 28.4 °F 81% 30.06 in 0.2 mi West 3.5 mph - N/A   Overcast
6:55 AM 32.0 °F - 30.2 °F 93% 30.06 in 0.2 mi Calm Calm - N/A   Overcast
7:15 AM 33.8 °F - 30.2 °F 87% 30.07 in 0.2 mi Calm Calm - N/A   Overcast
7:35 AM 33.8 °F - 28.4 °F 81% 30.08 in 0.5 mi Calm Calm - N/A   Overcast
7:55 AM 33.8 °F - 30.2 °F 87% 30.08 in 5.0 mi Calm Calm - N/A   Overcast
8:15 AM 33.8 °F 30.8 °F 30.2 °F 87% 30.08 in 10.0 mi North 3.5 mph - N/A   Overcast
8:35 AM 33.8 °F 27.7 °F 30.2 °F 87% 30.08 in 10.0 mi NNW 6.9 mph - N/A   Overcast
8:55 AM 33.8 °F 28.6 °F 30.2 °F 87% 30.09 in 10.0 mi North 5.8 mph - N/A   Overcast
9:15 AM 33.8 °F 27.0 °F 30.2 °F 87% 30.09 in 10.0 mi NNW 8.1 mph - N/A   Overcast
9:35 AM 33.8 °F 26.4 °F 30.2 °F 87% 30.10 in 10.0 mi North 9.2 mph - N/A   Overcast
9:55 AM 33.8 °F 27.0 °F 30.2 °F 87% 30.09 in 10.0 mi North 8.1 mph - N/A   Overcast
10:15 AM 33.8 °F 25.3 °F 30.2 °F 87% 30.09 in 10.0 mi North 11.5 mph - N/A   Overcast
10:35 AM 33.8 °F 26.4 °F 28.4 °F 81% 30.09 in 10.0 mi North 9.2 mph - N/A   Overcast
10:55 AM 33.8 °F 27.0 °F 28.4 °F 81% 30.10 in 10.0 mi North 8.1 mph - N/A   Overcast
11:15 AM 33.8 °F 27.0 °F 28.4 °F 81% 30.10 in 10.0 mi North 8.1 mph 17.3 mph N/A   Overcast
11:35 AM 33.8 °F 25.8 °F 28.4 °F 81% 30.10 in 10.0 mi North 10.4 mph - N/A   Overcast
11:55 AM 33.8 °F 25.3 °F 28.4 °F 81% 30.10 in 9.0 mi NNE 11.5 mph - N/A   Overcast
12:15 PM 35.6 °F 28.6 °F 28.4 °F 75% 30.10 in 10.0 mi NNE 9.2 mph 17.3 mph N/A   Overcast
12:35 PM 33.8 °F 25.8 °F 28.4 °F 81% 30.10 in 10.0 mi NNE 10.4 mph - N/A   Overcast
12:55 PM 35.6 °F 28.6 °F 28.4 °F 75% 30.11 in 10.0 mi NE 9.2 mph 16.1 mph N/A   Overcast
1:15 PM 35.6 °F 27.1 °F 28.4 °F 75% 30.11 in 10.0 mi NE 12.7 mph 16.1 mph N/A   Overcast
1:35 PM 35.6 °F 28.6 °F 26.6 °F 70% 30.12 in 10.0 mi NNE 9.2 mph - N/A   Overcast
1:55 PM 35.6 °F 28.0 °F 26.6 °F 70% 30.12 in 10.0 mi NNE 10.4 mph - N/A   Overcast
2:15 PM 33.8 °F 25.3 °F 26.6 °F 75% 30.12 in 10.0 mi NE 11.5 mph 19.6 mph N/A   Mostly Cloudy
2:35 PM 35.6 °F 25.9 °F 24.8 °F 65% 30.11 in 10.0 mi ENE 16.1 mph 19.6 mph N/A   Overcast
2:55 PM 35.6 °F 27.1 °F 24.8 °F 65% 30.12 in 10.0 mi NE 12.7 mph 18.4 mph N/A   Mostly Cloudy
3:15 PM 35.6 °F 26.2 °F 21.2 °F 56% 30.12 in 10.0 mi ENE 15.0 mph - N/A   Scattered Clouds
3:35 PM 35.6 °F 26.6 °F 21.2 °F 56% 30.11 in 10.0 mi ENE 13.8 mph 17.3 mph N/A   Partly Cloudy
3:55 PM 35.6 °F 26.6 °F 19.4 °F 52% 30.11 in 10.0 mi East 13.8 mph 21.9 mph N/A   Clear
4:15 PM 35.6 °F 28.0 °F 19.4 °F 52% 30.12 in 10.0 mi NE 10.4 mph 19.6 mph N/A   Clear
4:35 PM 35.6 °F 27.5 °F 17.6 °F 48% 30.13 in 10.0 mi NE 11.5 mph 17.3 mph N/A   Clear
4:55 PM 35.6 °F 27.1 °F 17.6 °F 48% 30.12 in 10.0 mi East 12.7 mph - N/A   Clear
5:15 PM 35.6 °F 26.2 °F 17.6 °F 48% 30.12 in 10.0 mi NE 15.0 mph 18.4 mph N/A   Clear
5:35 PM 33.8 °F 25.3 °F 15.8 °F 48% 30.12 in 10.0 mi ENE 11.5 mph - N/A   Clear
5:55 PM 33.8 °F 24.3 °F 15.8 °F 48% 30.13 in 10.0 mi East 13.8 mph - N/A   Clear
6:15 PM 33.8 °F 26.4 °F 15.8 °F 48% 30.13 in 10.0 mi ENE 9.2 mph 17.3 mph N/A   Clear
6:35 PM 33.8 °F 25.3 °F 15.8 °F 48% 30.14 in 10.0 mi ENE 11.5 mph - N/A   Clear
6:55 PM 33.8 °F 27.0 °F 15.8 °F 48% 30.16 in 10.0 mi ENE 8.1 mph - N/A   Clear